When you browse on this site, cookies collect data to enhance your experience and personalize the content and advertising you see.
Visit our Privacy Policy to learn more. By continuing to use the site, you agree to this use of cookies and data.
  • In Hungary
  • List of Countries
  • For 7 days
  • Water Temperature
  • Weather Map
  • News
  • Weather Widgets
  • user-avatar
    Login

    Hourly Weather Alfeld

    Today, 12 December, Thursday

    Time Temperature Precipitation Wind Pressure Humidity
    00:00 +2°C° 0 mm 2 mps 732 mmHg 94%
    01:00 +2°C° 0 mm 2 mps 732 mmHg 93%
    02:00 +2°C° 0 mm 2 mps 732 mmHg 93%
    03:00 +2°C° 0 mm 2 mps 731 mmHg 93%
    04:00 +2°C° 0 mm 2 mps 731 mmHg 92%
    05:00 +2°C° 0 mm 2 mps 731 mmHg 92%
    06:00 +2°C° 0 mm 2 mps 731 mmHg 92%
    07:00 0°C° 0 mm 3 mps 731 mmHg 92%
    08:00 +1°C° 0 mm 3 mps 731 mmHg 91%
    09:00 +1°C° 0 mm 3 mps 731 mmHg 90%
    10:00 0°C° 0 mm 4 mps 731 mmHg 89%
    11:00 +1°C° 0 mm 4 mps 730 mmHg 87%
    12:00 +1°C° 0 mm 4 mps 730 mmHg 85%
    13:00 +3°C° 0 mm 4 mps 730 mmHg 83%
    14:00 +3°C° 0 mm 4 mps 730 mmHg 84%
    15:00 +2°C° 0 mm 3 mps 729 mmHg 86%
    16:00 +2°C° 0 mm 3 mps 729 mmHg 87%
    17:00 +2°C° 0 mm 3 mps 728 mmHg 87%
    18:00 0°C° 0 mm 4 mps 728 mmHg 87%
    19:00 -1°C° 0 mm 4 mps 727 mmHg 87%
    20:00 -1°C° 0 mm 4 mps 726 mmHg 86%
    21:00 -1°C° 0 mm 5 mps 725 mmHg 84%
    22:00 -1°C° 0 mm 5 mps 725 mmHg 83%
    23:00 -2°C° 0 mm 5 mps 724 mmHg 83%

    Tomorrow, 13 December, Friday

    Time Temperature Precipitation Wind Pressure Humidity
    00:00 -2°C° 0 mm 5 mps 722 mmHg 82%
    01:00 -2°C° 0 mm 5 mps 721 mmHg 82%
    02:00 -2°C° 0 mm 5 mps 720 mmHg 80%
    03:00 -2°C° 0 mm 5 mps 719 mmHg 78%
    04:00 -2°C° 0 mm 5 mps 718 mmHg 75%
    05:00 -1°C° 0 mm 5 mps 717 mmHg 75%
    06:00 -2°C° 0 mm 6 mps 716 mmHg 74%
    07:00 -2°C° 0 mm 6 mps 715 mmHg 73%
    08:00 -1°C° 0 mm 5 mps 715 mmHg 74%
    09:00 0°C° 0 mm 5 mps 714 mmHg 75%
    10:00 0°C° 0 mm 5 mps 714 mmHg 75%
    11:00 0°C° 0 mm 5 mps 714 mmHg 79%
    12:00 +1°C° 0 mm 5 mps 714 mmHg 82%
    13:00 +1°C° 0 mm 5 mps 714 mmHg 85%
    14:00 +1°C° 0.1 mm 4 mps 714 mmHg 88%
    15:00 +2°C° 0.1 mm 3 mps 714 mmHg 91%
    16:00 +2°C° 0.1 mm 3 mps 714 mmHg 94%
    17:00 +2°C° 0.5 mm 3 mps 714 mmHg 94%
    18:00 +3°C° 0.5 mm 4 mps 715 mmHg 94%
    19:00 +3°C° 0.5 mm 4 mps 716 mmHg 94%
    20:00 +2°C° 0.5 mm 5 mps 717 mmHg 91%
    21:00 +2°C° 0.5 mm 6 mps 717 mmHg 89%
    22:00 +2°C° 0.5 mm 6 mps 718 mmHg 86%
    23:00 +2°C° 0 mm 6 mps 719 mmHg 86%

    Day after tomorrow, 14 December, Saturday

    Time Temperature Precipitation Wind Pressure Humidity
    00:00 +2°C° 0 mm 6 mps 719 mmHg 86%
    01:00 +2°C° 0 mm 6 mps 720 mmHg 86%
    02:00 +2°C° 0.4 mm 6 mps 720 mmHg 88%
    03:00 +2°C° 0.4 mm 6 mps 720 mmHg 90%
    04:00 +2°C° 0.4 mm 6 mps 721 mmHg 92%
    05:00 +2°C° 0.1 mm 6 mps 721 mmHg 89%
    06:00 +2°C° 0.1 mm 6 mps 721 mmHg 86%
    07:00 +2°C° 0.1 mm 6 mps 721 mmHg 82%
    08:00 +2°C° 0.7 mm 7 mps 720 mmHg 84%
    09:00 +2°C° 0.7 mm 7 mps 720 mmHg 86%
    10:00 +3°C° 0.7 mm 7 mps 719 mmHg 88%
    11:00 +2°C° 0.2 mm 9 mps 720 mmHg 84%
    12:00 +2°C° 0.2 mm 10 mps 721 mmHg 80%
    13:00 +2°C° 0.2 mm 11 mps 721 mmHg 76%
    14:00 +2°C° 0.1 mm 10 mps 723 mmHg 73%
    15:00 +2°C° 0.1 mm 8 mps 724 mmHg 69%
    16:00 +2°C° 0.1 mm 7 mps 725 mmHg 66%
    17:00 +2°C° 0 mm 7 mps 726 mmHg 70%
    18:00 +2°C° 0 mm 6 mps 726 mmHg 74%
    19:00 +1°C° 0 mm 6 mps 727 mmHg 77%
    20:00 +2°C° 0.2 mm 6 mps 727 mmHg 78%
    21:00 +2°C° 0.2 mm 7 mps 728 mmHg 79%
    22:00 +2°C° 0.2 mm 7 mps 728 mmHg 79%
    23:00 +2°C° 0 mm 6 mps 728 mmHg 80%

    15 December, Sunday

    Time Temperature Precipitation Wind Pressure Humidity
    00:00 +1°C° 0 mm 5 mps 729 mmHg 81%
    01:00 0°C° 0 mm 4 mps 729 mmHg 81%
    02:00 0°C° 0 mm 4 mps 729 mmHg 83%
    03:00 0°C° 0 mm 4 mps 728 mmHg 84%
    04:00 +1°C° 0 mm 4 mps 728 mmHg 85%
    05:00 +2°C° 0.4 mm 5 mps 727 mmHg 86%
    06:00 +3°C° 0.4 mm 6 mps 726 mmHg 87%
    07:00 +4°C° 0.4 mm 6 mps 726 mmHg 88%
    08:00 +4°C° 0.5 mm 7 mps 726 mmHg 84%
    09:00 +4°C° 0.5 mm 7 mps 727 mmHg 79%
    10:00 +4°C° 0.5 mm 8 mps 727 mmHg 74%
    11:00 +3°C° 0 mm 9 mps 728 mmHg 69%
    12:00 +2°C° 0 mm 10 mps 729 mmHg 63%
    13:00 +2°C° 0 mm 11 mps 731 mmHg 58%
    14:00 +1°C° 0 mm 9 mps 732 mmHg 61%
    15:00 +2°C° 0 mm 7 mps 733 mmHg 63%
    16:00 +1°C° 0 mm 5 mps 734 mmHg 66%
    17:00 +1°C° 0 mm 4 mps 735 mmHg 71%
    18:00 0°C° 0 mm 4 mps 735 mmHg 75%
    19:00 +1°C° 0 mm 3 mps 736 mmHg 80%
    20:00 0°C° 0 mm 4 mps 736 mmHg 80%
    21:00 0°C° 0 mm 4 mps 736 mmHg 81%
    22:00 0°C° 0 mm 5 mps 736 mmHg 81%
    23:00 0°C° 0 mm 5 mps 736 mmHg 82%

    16 December, Monday

    Time Temperature Precipitation Wind Pressure Humidity
    00:00 +1°C° 0 mm 5 mps 736 mmHg 82%
    01:00 +1°C° 0 mm 5 mps 736 mmHg 82%
    02:00 +1°C° 0 mm 5 mps 736 mmHg 83%
    03:00 +1°C° 0 mm 5 mps 737 mmHg 83%
    04:00 +1°C° 0 mm 5 mps 737 mmHg 83%
    05:00 +1°C° 0 mm 4 mps 737 mmHg 84%
    06:00 +1°C° 0 mm 4 mps 737 mmHg 85%
    07:00 +1°C° 0 mm 4 mps 737 mmHg 86%
    08:00 +3°C° 0 mm 4 mps 738 mmHg 85%
    09:00 +3°C° 0 mm 4 mps 738 mmHg 85%
    10:00 +3°C° 0 mm 4 mps 738 mmHg 85%
    11:00 +4°C° 0 mm 4 mps 738 mmHg 83%
    12:00 +5°C° 0 mm 4 mps 737 mmHg 82%
    13:00 +5°C° 0 mm 3 mps 737 mmHg 81%
    14:00 +5°C° 0 mm 3 mps 737 mmHg 84%
    15:00 +5°C° 0 mm 2 mps 737 mmHg 87%
    16:00 +5°C° 0 mm 2 mps 737 mmHg 90%
    17:00 +5°C° 0.1 mm 2 mps 736 mmHg 91%
    18:00 +5°C° 0.1 mm 2 mps 736 mmHg 92%
    19:00 +6°C° 0.1 mm 1 mps 736 mmHg 94%
    20:00 +5°C° 0.5 mm 2 mps 736 mmHg 95%
    21:00 +5°C° 0.5 mm 2 mps 735 mmHg 95%
    22:00 +5°C° 0.5 mm 2 mps 735 mmHg 96%
    23:00 +6°C° 0.4 mm 2 mps 735 mmHg 95%

    17 December, Tuesday

    Time Temperature Precipitation Wind Pressure Humidity
    00:00 +6°C° 0.4 mm 2 mps 734 mmHg 95%
    01:00 +5°C° 0.4 mm 3 mps 734 mmHg 94%
    02:00 +5°C° 0 mm 3 mps 734 mmHg 90%
    03:00 +5°C° 0 mm 3 mps 733 mmHg 85%
    04:00 +5°C° 0 mm 3 mps 733 mmHg 81%
    05:00 +5°C° 0 mm 4 mps 733 mmHg 80%
    06:00 +5°C° 0 mm 4 mps 733 mmHg 79%
    07:00 +5°C° 0 mm 4 mps 733 mmHg 77%
    08:00 +6°C° 0 mm 4 mps 733 mmHg 76%
    09:00 +6°C° 0 mm 4 mps 734 mmHg 75%
    10:00 +7°C° 0 mm 4 mps 734 mmHg 74%
    11:00 +7°C° 0 mm 4 mps 734 mmHg 74%
    12:00 +8°C° 0 mm 5 mps 734 mmHg 73%
    13:00 +9°C° 0 mm 5 mps 734 mmHg 73%
    14:00 +9°C° 0.1 mm 5 mps 734 mmHg 78%
    15:00 +8°C° 0.1 mm 4 mps 734 mmHg 82%
    16:00 +8°C° 0.1 mm 4 mps 734 mmHg 86%
    17:00 +8°C° 0.3 mm 4 mps 735 mmHg 88%
    18:00 +9°C° 0.3 mm 3 mps 735 mmHg 91%
    19:00 +8°C° 0.3 mm 3 mps 735 mmHg 93%
    20:00 +8°C° 1.4 mm 3 mps 736 mmHg 92%
    21:00 +6°C° 1.4 mm 4 mps 737 mmHg 92%
    22:00 +6°C° 1.4 mm 4 mps 738 mmHg 92%
    23:00 +5°C° 0.1 mm 4 mps 738 mmHg 91%
    Show more